Albany, NY

11:00 AM EST on December 09, 2019 (GMT -0500)
Albany International

Weather History for KALB - July, 2019

Change the Weather History Date:

Saturday, July 27, 2019

  Actual Average Record
Temperature  
Mean Temperature 75 °F 72 °F  
Max Temperature 88 °F 82 °F 97 °F (1955)
Min Temperature 61 °F 62 °F 47 °F (1977)
Degree Days  
Heating Degree Days 0 0  
Month to date heating degree days 0 0  
Since 1 June heating degree days 27 52  
Since 1 July heating degree days 0 0  
Cooling Degree Days 10 7  
Month to date cooling degree days 301 186  
Year to date cooling degree days 451 334  
Since 1 June cooling degree days 429 304  
Growing Degree Days 24 (Base 50)    
Moisture  
Dew Point 60 °F    
Average Humidity 62    
Maximum Humidity 84    
Minimum Humidity 40    
Precipitation  
Precipitation 0.00 in 0.13 in 2.15 in (2004)
Month to date precipitation 3.56 3.59  
Year to date precipitation 24.43 22.16  
Sea Level Pressure  
Sea Level Pressure 30.21 in    
Wind  
Wind Speed 4 mph (South)    
Max Wind Speed 12 mph    
Max Gust Speed 16 mph    
Visibility 10 miles    
Events Fog    
T = Trace of Precipitation, MM = Missing Value Source: NWS Daily Summary

Daily Weather History Graph

Daily Weather History Graph

Search for Another Location

Airport or City:

Astronomy

Jul. 27, 2019 Rise Set
Actual Time 5:41 AM EDT 8:21 PM EDT
Civil Twilight 5:08 AM EDT 8:53 PM EDT
Nautical Twilight 4:27 AM EDT 9:34 PM EDT
Astronomical Twilight 3:40 AM EDT 10:21 PM EDT
Moon 1:27 AM EDT (7/27) 4:09 PM EDT (7/27)
Length of Visible Light 15h 45m
Length of Day
14h 40m
Waning Crescent, 24% of the Moon is Illuminated
Jul 27
Waning Crescent
Jul 31
New
Aug 7
First Quarter
Aug 15
Full
Aug 23
Last Quarter

Hourly Weather History & Observations

Time (EDT) Temp. Heat Index Dew Point Humidity Pressure Visibility Wind Dir Wind Speed Gust Speed Precip Events Conditions
12:51 AM 66.0 °F - 57.9 °F 75% 30.25 in 10.0 mi Calm Calm - N/A   Clear
1:51 AM 64.9 °F - 57.9 °F 78% 30.25 in 10.0 mi Calm Calm - N/A   Clear
2:51 AM 63.0 °F - 57.0 °F 81% 30.26 in 10.0 mi Calm Calm - N/A   Partly Cloudy
3:51 AM 63.0 °F - 57.9 °F 84% 30.25 in 10.0 mi Calm Calm - N/A   Clear
4:51 AM 62.1 °F - 57.0 °F 84% 30.26 in 10.0 mi Calm Calm - N/A   Partly Cloudy
5:51 AM 62.1 °F - 57.0 °F 84% 30.27 in 10.0 mi Calm Calm - N/A Fog Patches of Fog
6:51 AM 64.0 °F - 59.0 °F 84% 30.28 in 10.0 mi Calm Calm - N/A Fog Patches of Fog
7:51 AM 69.1 °F - 60.1 °F 73% 30.29 in 10.0 mi Calm Calm - N/A   Clear
8:51 AM 72.0 °F - 62.1 °F 71% 30.29 in 10.0 mi Calm Calm - N/A   Clear
9:51 AM 75.0 °F - 63.0 °F 66% 30.28 in 10.0 mi Calm Calm - N/A   Partly Cloudy
10:51 AM 79.0 °F - 63.0 °F 58% 30.27 in 10.0 mi Variable 3.5 mph - N/A   Partly Cloudy
11:51 AM 82.0 °F 83.0 °F 62.1 °F 51% 30.25 in 10.0 mi SW 3.5 mph - N/A   Partly Cloudy
12:51 PM 84.9 °F 85.9 °F 63.0 °F 48% 30.22 in 10.0 mi ESE 5.8 mph - N/A   Scattered Clouds
1:51 PM 87.1 °F 87.0 °F 61.0 °F 41% 30.20 in 10.0 mi SSW 8.1 mph - N/A   Scattered Clouds
2:51 PM 88.0 °F 87.9 °F 61.0 °F 40% 30.17 in 10.0 mi South 6.9 mph - N/A   Scattered Clouds
3:51 PM 87.1 °F 86.7 °F 60.1 °F 40% 30.16 in 10.0 mi SSE 6.9 mph - N/A   Scattered Clouds
4:51 PM 86.0 °F 86.3 °F 62.1 °F 44% 30.14 in 10.0 mi SSW 9.2 mph - N/A   Mostly Cloudy
5:51 PM 86.0 °F 86.1 °F 61.0 °F 43% 30.13 in 10.0 mi South 12.7 mph - N/A   Scattered Clouds
6:51 PM 84.9 °F 84.8 °F 60.1 °F 43% 30.11 in 10.0 mi South 5.8 mph - N/A   Partly Cloudy
7:51 PM 82.9 °F 82.8 °F 59.0 °F 44% 30.11 in 10.0 mi South 6.9 mph - N/A   Partly Cloudy
8:51 PM 81.0 °F 81.9 °F 62.1 °F 52% 30.12 in 10.0 mi SSE 3.5 mph - N/A   Mostly Cloudy
9:51 PM 77.0 °F - 63.0 °F 62% 30.13 in 10.0 mi SSW 6.9 mph - N/A   Partly Cloudy
10:51 PM 75.9 °F - 64.0 °F 67% 30.13 in 10.0 mi South 5.8 mph - N/A   Scattered Clouds